Regional Weather Roundup
Issued by NWS Jackson, KY

Home | Current Version | Previous Version | Graphics & Text | Print | Product List | Glossary On
Versions: 1 2 3 4 5 6 7 8 9 10 11 12 13 14 15 16 17 18 19 20 21 22 23 24 25 26 27 28 29 30 31 32 33 34 35 36 37 38 39 40 41 42 43 44 45 46 47 48 49 50
000
ASUS43 KJKL 280710
RWRJKL

EAST KENTUCKY HOURLY WEATHER ROUNDUP
NATIONAL WEATHER SERVICE JACKSON KY
300 AM EDT THU MAY 28 2015

NOTE: "FAIR" INDICATES FEW OR NO CLOUDS BELOW 12,000 FEET WITH
NO SIGNIFICANT WEATHER AND/OR OBSTRUCTIONS TO VISIBILITY.

* THESE REPORTS ARE NOT UNDER NWS QUALITY CONTROL AND MAY NOT
  REPORT WEATHER SUCH AS PRECIPITATION AND FOG.

KYZ079-080-083-085-087-088-110-112-115-119-120-280800
...EASTERN KENTUCKY...

CITY           SKY/WX    TMP DP  RH WIND       PRES   REMARKS
JACKSON        PTCLDY    65  61  87 CALM      30.20S
LONDON         CLOUDY    63  58  83 CALM      30.20S
SOMERSET*      CLOUDY    59  59 100 CALM      30.20S FOG
MONTICELLO*    CLOUDY    62  62 100 CALM      30.22S
MIDDLESBORO*   CLOUDY    64  64 100 CALM      30.21S
HARLAN APT*    PTSUNNY   64  64 100 CALM      30.22S
HAZARD APT*    PTSUNNY   66  63  88 W3        30.21R
BLACK MTN*       N/A     61  57  88 S7          N/A
PIKEVILLE APT* CLEAR     68  63  83 N3        30.21S
BIG SANDY*     MOSUNNY   65  60  84 CALM      30.19F
$$

KYZ035-036-041-042-044-050-067-078-099-280800
...CENTRAL KENTUCKY...

CITY           SKY/WX    TMP DP  RH WIND       PRES   REMARKS
MT STERLING*   MOCLDY    61  61 100 W3        30.20S
FLEMING/MASON* CLEAR     59  59 100 CALM      30.20R
DANVILLE*      CLOUDY    61  61 100 S3        30.19S
RICHMOND*      CLOUDY    61  59  94 CALM      30.18S
LEXINGTON      CLOUDY    61  60  97 S6        30.18R
FRANKFORT      CLOUDY    63  60  90 CALM      30.16S
$$

KYZ091>093-OHZ055-061-077-WVZ005-015-034-035-042-280800
...SOUTHERN OHIO/WEST VIRGINIA...

CITY           SKY/WX    TMP DP  RH WIND       PRES   REMARKS
COVINGTON      CLOUDY    64  61  90 SW3       30.16S
COLUMBUS       CLOUDY    67  59  75 W6        30.15R
DAYTON         MOCLDY    66  62  87 W8        30.17R
WILMINGTON     MOCLDY    62  58  86 SW3       30.16S
HUNTINGTON     MOCLDY    63  60  90 CALM      30.17S
CHARLESTON     CLOUDY    65  63  93 SE3       30.18S
PINEVILLE*     MOCLDY    62  62 100 MISG      30.26S
BECKLEY        PTCLDY    61  57  87 CALM      30.24F
BLUEFIELD      PTCLDY    67  55  65 CALM      30.27S
$$

VAZ002-007-008-TNZ017-027-036-066-071-280800
...SOUTHWEST VIRGINIA/EAST TENNESSEE...

CITY           SKY/WX    TMP DP  RH WIND       PRES   REMARKS
WISE*          MOCLDY    64  55  72 SW6       30.27S
JONESVILLE*    PTSUNNY   64  63  94 CALM      30.23S
ABINGDON*      CLOUDY    66  61  85 CALM      30.24S
BRISTOL        MOCLDY    66  61  84 CALM      30.21S
KNOXVILLE      CLOUDY    71  62  73 SW8       30.18F
OAK RIDGE      CLOUDY    70  66  87 CALM      30.20S
CROSSVILLE     CLOUDY    67  62  84 CALM      30.21F
$$

...KEY TO REMARKS...
VSB - VISIBILITY IN MILES
WCI - WIND CHILL INDEX
HX  - HEAT INDEX

$$


USA.gov is the U.S. government's official web portal to all federal, state and local government web resources and services.